SCP
0 0 0 0 0 0 0 0 0 0 0 0 0 0 0 0 0 0 0 0 0 0
0 0 0 0 0 0 0 0 0 0 0 0 0 -0 -0 0 0 0 0 0 0 0
0 0 0 0 0 0 0 0 0 0 0 -0 -0 0 0 0 0 0 0 0 0 0
0 0 0 0 0 0 0 0 0 -0 -0 -0 -0 -0 0 0 0 0 0 0 0 0
0 0 0 0 0 0 0 0 0 -0 -0 -0 -0 -0 -0 -0 0 0 0 0 0 0
0 0 0 0 0 0 0 0 0 -0 -0 0 -0 -0 -0 0 0 0 0 0 0 0
0 0 0 0 0 0 0 0 0 0 0 0 0 -0 0 0 0 0 0 0 0 0
0 0 0 0 0 0 0 0 0 0 0 0 0 0 0 0 0 0 0 0 0 0
0 0 0 0 0 0 0 0 0 0 0 0 0 0 0 0 0 0 0 0 0 0
0 0 0 0 0 0 0 0 0 0 0 0 0 0 0 0 0 0 0 0 0 0
0 0 0 0 0 0 0 0 0 0 0 0 0 0 0 0 0 0 0 0 0 0
0 0 0 0 0 0 0 0 0 0 0 0 0 0 0 0 0 0 0 0 0 0
0 0 0 0 0 0 0 0 0 0 0 0 0 0 0 0 0 0 0 0 0 0
0 0 0 0 0 0 0 0 0 0 0 0 0 0 0 0 0 0 0 0 0 0
Wind_Speed_500mb
49 41 32 24 21 18 18 17 17 21 27 29 27 23 21 21 21 20 20 19 19 21
51 41 32 26 22 18 16 13 12 18 26 28 26 24 24 21 20 18 18 19 17 20
49 41 33 27 22 20 15 11 7 13 19 22 25 27 27 25 23 22 20 21 21 19
51 41 35 30 25 22 14 11 5 6 12 16 22 27 27 25 23 23 22 21 20 16
50 43 36 31 27 22 17 13 9 2 10 15 18 22 24 23 25 26 25 23 23 23
51 44 38 33 30 25 20 16 12 3 6 12 12 14 17 19 20 22 24 27 27 26
51 44 39 35 33 27 23 18 15 7 6 11 8 10 14 16 18 22 24 27 29 29
50 45 44 40 36 31 26 21 18 11 8 10 9 7 9 13 14 17 20 23 25 28
53 53 48 43 40 35 31 25 20 17 12 11 11 8 9 11 13 16 18 21 24 28
58 56 50 47 45 40 35 29 24 20 17 11 11 10 9 10 10 13 18 21 23 25
63 56 53 53 48 44 40 33 29 24 21 16 13 12 11 10 11 12 15 20 24 25
63 58 59 58 51 47 44 40 33 28 24 22 19 17 15 11 11 11 14 18 21 24
63 63 62 57 52 50 47 42 40 34 28 26 24 22 20 15 13 12 14 18 20 21
67 65 60 56 55 51 50 47 45 39 35 32 29 27 24 21 18 16 16 17 20 20
Wind_Direction_500mb
216 222 233 249 255 259 274 295 316 337 351 351 348 345 347 344 343 347 343 340 333 325
215 222 233 242 245 250 267 291 318 357 5 359 356 360 359 356 348 344 330 323 319 318
215 221 231 238 238 243 254 273 310 15 9 8 7 14 11 6 1 357 349 332 315 304
216 222 230 233 231 235 240 252 265 15 352 360 18 19 17 15 16 17 10 357 348 332
217 223 227 228 226 228 231 240 241 302 330 340 12 21 17 18 22 27 14 8 1 348
219 224 226 225 224 224 225 232 235 216 307 320 350 2 11 16 20 27 20 15 10 360
222 225 226 223 221 222 222 228 235 204 268 296 325 348 359 4 24 27 21 13 3 353
223 224 224 222 220 221 221 224 235 223 242 278 295 334 353 349 10 17 16 11 4 1
222 224 224 221 220 221 221 222 228 236 235 261 281 306 328 346 356 6 8 4 1 2
223 224 222 221 221 220 221 223 223 231 234 232 265 283 299 319 339 355 358 357 358 1
223 224 223 223 222 220 222 224 227 227 235 236 236 255 271 289 311 339 349 352 353 357
224 225 224 224 223 223 223 225 229 231 232 239 243 248 250 264 286 313 332 341 346 350
228 228 227 225 224 225 225 225 228 231 234 236 245 252 259 261 270 293 315 324 330 341
228 228 228 224 225 225 226 226 230 233 234 236 240 248 254 261 268 281 296 305 315 326
Wind_Speed_850mb
49 41 32 24 21 18 18 17 17 21 27 29 27 23 21 21 21 20 20 19 19 21
51 41 32 26 22 18 16 13 12 18 26 28 26 24 24 21 20 18 18 19 17 20
49 41 33 27 22 20 15 11 7 13 19 22 25 27 27 25 23 22 20 21 21 19
51 41 35 30 25 22 14 11 5 6 12 16 22 27 27 25 23 23 22 21 20 16
50 43 36 31 27 22 17 13 9 2 10 15 18 22 24 23 25 26 25 23 23 23
51 44 38 33 30 25 20 16 12 3 6 12 12 14 17 19 20 22 24 27 27 26
51 44 39 35 33 27 23 18 15 7 6 11 8 10 14 16 18 22 24 27 29 29
50 45 44 40 36 31 26 21 18 11 8 10 9 7 9 13 14 17 20 23 25 28
53 53 48 43 40 35 31 25 20 17 12 11 11 8 9 11 13 16 18 21 24 28
58 56 50 47 45 40 35 29 24 20 17 11 11 10 9 10 10 13 18 21 23 25
63 56 53 53 48 44 40 33 29 24 21 16 13 12 11 10 11 12 15 20 24 25
63 58 59 58 51 47 44 40 33 28 24 22 19 17 15 11 11 11 14 18 21 24
63 63 62 57 52 50 47 42 40 34 28 26 24 22 20 15 13 12 14 18 20 21
67 65 60 56 55 51 50 47 45 39 35 32 29 27 24 21 18 16 16 17 20 20
Wind_Direction_850mb
216 222 233 249 255 259 274 295 316 337 351 351 348 345 347 344 343 347 343 340 333 325
215 222 233 242 245 250 267 291 318 357 5 359 356 360 359 356 348 344 330 323 319 318
215 221 231 238 238 243 254 273 310 15 9 8 7 14 11 6 1 357 349 332 315 304
216 222 230 233 231 235 240 252 265 15 352 360 18 19 17 15 16 17 10 357 348 332
217 223 227 228 226 228 231 240 241 302 330 340 12 21 17 18 22 27 14 8 1 348
219 224 226 225 224 224 225 232 235 216 307 320 350 2 11 16 20 27 20 15 10 360
222 225 226 223 221 222 222 228 235 204 268 296 325 348 359 4 24 27 21 13 3 353
223 224 224 222 220 221 221 224 235 223 242 278 295 334 353 349 10 17 16 11 4 1
222 224 224 221 220 221 221 222 228 236 235 261 281 306 328 346 356 6 8 4 1 2
223 224 222 221 221 220 221 223 223 231 234 232 265 283 299 319 339 355 358 357 358 1
223 224 223 223 222 220 222 224 227 227 235 236 236 255 271 289 311 339 349 352 353 357
224 225 224 224 223 223 223 225 229 231 232 239 243 248 250 264 286 313 332 341 346 350
228 228 227 225 224 225 225 225 228 231 234 236 245 252 259 261 270 293 315 324 330 341
228 228 228 224 225 225 226 226 230 233 234 236 240 248 254 261 268 281 296 305 315 326